Flag for Norway Weather past 2 weeks in Rygge, Norway

43 °F

Passing clouds.

Feels Like: 34 °F
Forecast: 36 / 42 °F
Wind: 18 mph from South

Location: Rygge

Current Time: Nov 28, 2015 at 11:50:01 PM

Latest Report: Nov 28, 2015 at 10:50 PM

Visibility: N/A

Pressure: 29.24 "Hg

Humidity: 76%

Dew point: 36 °F

Location of RyggeLocation

Historic Weather in Rygge — Graph


Rygge temperature yesterday

Maximum temperature yesterday: 50 °F (at 7:50 AM)
Minimum temperature yesterday: 46 °F (at 12:20 AM)
Average temperature yesterday: 49 °F

Past Weeks' High & Low Weather Summary

High50 °F (Nov 16, 3:50 PM)100% (Nov 14, 1:20 AM)29.98 "Hg (Nov 14, 1:20 AM)
Low14 °F (Nov 23, 1:50 AM)62% (Nov 15, 1:50 PM)29.12 "Hg (Nov 28, 4:50 AM)
Average35 °F91%29.50 "Hg
* Reported Nov 13 9:20 PM — Nov 28 9:50 PM, Rygge, Weather by CustomWeather, © 2015

Note: Actual official high and low records may vary slightly from our data, if they occured in-between our weather recording intervals... More about our weather records


Rygge weather history for previous 24 hours

Time TempWeatherWind HumidityBarometerVisibility
9:50 PM
Sat, Nov 28
41 °FRain. Partly cloudy.14 mph81%29.30 "HgN/A
9:20 PM39 °FClear.9 mph81%29.30 "Hg10 mi
8:50 PM39 °FClear.9 mph75%29.33 "Hg10 mi
8:20 PM39 °FClear.12 mph75%29.33 "Hg10 mi
7:50 PM39 °FPassing clouds.8 mph75%29.33 "HgN/A
7:20 PM37 °FClear.8 mph75%29.36 "Hg10 mi
6:50 PM39 °FClear.10 mph70%29.33 "Hg10 mi
6:20 PM39 °FClear.10 mph70%29.36 "Hg10 mi
5:50 PM39 °FClear.9 mph70%29.36 "Hg10 mi
5:20 PM39 °FPassing clouds.8 mph70%29.36 "HgN/A
4:50 PM39 °FClear.9 mph70%29.33 "Hg10 mi
4:20 PM37 °FClear.9 mph75%29.33 "Hg10 mi
3:50 PM37 °FPassing clouds.6 mph75%29.33 "HgN/A
3:20 PM39 °FSunny.7 mph70%29.33 "Hg10 mi
2:50 PM39 °FSunny.8 mph75%29.33 "Hg10 mi
2:20 PM41 °FSunny.7 mph70%29.33 "Hg10 mi
1:50 PM41 °FSunny.7 mph70%29.30 "Hg10 mi
1:20 PM41 °FSunny.7 mph70%29.30 "Hg10 mi
12:50 PM41 °FPassing clouds.7 mph76%29.30 "HgN/A
12:20 PM41 °FSunny.8 mph70%29.27 "Hg10 mi
11:50 AM41 °FSunny.8 mph76%29.27 "Hg10 mi
11:20 AM41 °FSunny.8 mph81%29.27 "Hg10 mi
10:50 AM41 °FSunny.7 mph87%29.27 "Hg10 mi
10:20 AM41 °FSunny.7 mph93%29.24 "Hg10 mi
9:50 AM41 °FPassing clouds.5 mph93%29.24 "HgN/A
9:20 AM39 °FSunny.3 mph100%29.24 "Hg10 mi
8:50 AM39 °FSunny.6 mph100%29.24 "Hg10 mi
8:20 AM39 °FClear.5 mph100%29.21 "Hg10 mi
7:50 AM39 °FPartly cloudy.6 mph100%29.18 "HgN/A
7:20 AM39 °FLight rain. Passing clouds.7 mph100%29.15 "HgN/A
6:50 AM41 °FRain. Passing clouds.10 mph93%29.15 "Hg6 mi
6:20 AM41 °FRain. Passing clouds.10 mph93%29.15 "Hg6 mi
5:50 AM41 °FRain. Overcast.15 mph93%29.15 "Hg1 mi
5:20 AM46 °FLight rain. Low clouds.22 mph100%29.12 "Hg3 mi
4:50 AM46 °FMostly cloudy.23 mph100%29.12 "Hg3 mi
4:20 AM46 °FRain. Low clouds.28 mph100%29.15 "Hg2 mi
3:50 AM46 °FDrizzle. Low clouds.25 mph100%29.15 "Hg2 mi
3:20 AM48 °FLight rain. Low clouds.26 mph94%29.18 "Hg2 mi
2:50 AM48 °FLight rain. Mostly cloudy.26 mph94%29.18 "Hg2 mi
2:20 AM48 °FLight rain. Low clouds.25 mph94%29.18 "Hg3 mi
1:50 AM48 °FDrizzle. Low clouds.26 mph94%29.21 "Hg4 mi
12:50 AM48 °FLight rain. Low clouds.25 mph94%29.24 "Hg3 mi
12:20 AM48 °FLow clouds.24 mph94%29.24 "Hg4 mi
11:50 PM
Fri, Nov 27
48 °FMostly cloudy.22 mph94%29.24 "Hg4 mi
11:20 PM50 °FMostly cloudy.21 mph88%29.27 "HgN/A
Weather by CustomWeather, © 2015

See weather overviewHow to use our weather pages